Flag for Comoros Weather past 2 weeks in Mutsamudu, Comoros

Now
82 °F

Scattered showers. Scattered clouds.


Feels Like: 89 °F
Forecast: 78 / 80 °F
Wind: 8 mph from West

Location: Dzaoudzi / Pamanzi Mayotte

Current Time: Jan 30, 2015 at 1:04:36 PM

Latest Report: Jan 30, 2015 at 12:34 PM


Visibility: N/A

Pressure: 29.86 "Hg

Humidity: 79%

Dew point: 75 °F

Location of MutsamuduLocation

Historic Weather in Mutsamudu — Graph

°F

Mutsamudu temperature yesterday

Maximum temperature yesterday: 86 °F (at 10:30 AM)
Minimum temperature yesterday: 79 °F (at 8:30 PM)
Average temperature yesterday: 82 °F

Past Weeks' High & Low Weather Summary

 TemperatureHumidityPressure
High88 °F (Jan 15, 12:04 PM)94% (Jan 19, 1:00 AM)29.98 "Hg (Jan 19, 1:00 AM)
Low75 °F (Jan 19, 11:04 AM)59% (Jan 25, 1:00 PM)29.65 "Hg (Jan 16, 4:30 PM)
Average81 °F80%29.83 "Hg
* Reported Jan 15 12:04 PM — Jan 30 12:05 PM, Mutsamudu, Weather by CustomWeather, © 2014

Note: Actual official high and low records may vary slightly from our data, if they occured in-between our weather recording intervals... More about our weather records

Advertising

Mutsamudu weather history for previous 24 hours

 ConditionsComfort  
Time TempWeatherWind HumidityBarometerVisibility
12:05 PM
Jan 30
82 °FScattered showers. Partly sunny.9 mph79%29.86 "HgN/A
11:30 AM84 °FScattered showers. Scattered clouds.13 mph74%29.86 "Hg4 mi
11:00 AM84 °FScattered showers. Scattered clouds.14 mph74%29.86 "Hg5 mi
10:30 AM86 °FRain showers. Scattered clouds.12 mph70%29.86 "Hg4 mi
10:00 AM84 °FRain showers. Scattered clouds.8 mph74%29.86 "Hg4 mi
9:30 AM84 °FScattered clouds.6 mph74%29.86 "HgN/A
9:00 AM84 °FPassing clouds.3 mph74%29.86 "HgN/A
8:30 AM84 °FPassing clouds.3 mph74%29.86 "HgN/A
8:00 AM84 °FPassing clouds.3 mph74%29.86 "HgN/A
7:30 AM82 °FPassing clouds.No wind79%29.86 "HgN/A
7:00 AM81 °FPassing clouds.No wind84%29.86 "HgN/A
6:30 AM79 °FPassing clouds.No wind89%29.86 "HgN/A
6:00 AM79 °FPassing clouds.3 mph89%29.83 "HgN/A
5:30 AM79 °FPassing clouds.3 mph89%29.83 "HgN/A
5:00 AM79 °FWarm.6 mph89%29.83 "HgN/A
4:30 AM79 °FWarm.3 mph84%29.83 "HgN/A
4:00 AM79 °FWarm.5 mph89%29.80 "HgN/A
3:30 AM79 °FWarm.6 mph89%29.80 "HgN/A
3:00 AM79 °FWarm.5 mph89%29.80 "HgN/A
2:30 AM79 °FWarm.3 mph89%29.83 "HgN/A
2:00 AM79 °FWarm.3 mph89%29.83 "HgN/A
1:30 AM79 °FWarm.5 mph89%29.83 "HgN/A
1:00 AM79 °FWarm.3 mph89%29.83 "HgN/A
12:30 AM79 °FWarm.2 mph89%29.86 "HgN/A
12:00 AM79 °FPassing clouds.5 mph89%29.86 "HgN/A
11:30 PM
Jan 29
79 °FPartly cloudy.3 mph89%29.89 "HgN/A
11:00 PM79 °FMostly cloudy.2 mph89%29.89 "HgN/A
10:30 PM79 °FWarm.1 mph89%29.89 "HgN/A
10:00 PM79 °FWarm.No wind89%29.89 "HgN/A
9:30 PM79 °FWarm.No wind89%29.89 "HgN/A
9:00 PM79 °FMostly cloudy.9 mph89%29.89 "HgN/A
8:30 PM79 °FMostly cloudy.9 mph84%29.86 "HgN/A
8:00 PM82 °FOvercast.3 mph79%29.86 "HgN/A
7:30 PM82 °FWarm.7 mph74%29.83 "HgN/A
7:00 PM82 °FPassing clouds.6 mph79%29.83 "HgN/A
6:30 PM81 °FBroken clouds.5 mph84%29.80 "HgN/A
6:00 PM82 °FScattered showers. Broken clouds.7 mph74%29.80 "Hg5 mi
5:30 PM82 °FBroken clouds.9 mph79%29.80 "Hg4 mi
5:00 PM82 °FBroken clouds.9 mph84%29.80 "HgN/A
4:30 PM82 °FBroken clouds.8 mph79%29.80 "HgN/A
4:06 PM84 °FBroken clouds.9 mph74%29.77 "HgN/A
3:34 PM86 °FBroken clouds.10 mph70%29.77 "HgN/A
3:00 PM86 °FBroken clouds.8 mph75%29.80 "HgN/A
2:30 PM86 °FBroken clouds.7 mph75%29.80 "HgN/A
2:00 PM84 °FBroken clouds.7 mph74%29.80 "HgN/A
1:30 PM84 °FBroken clouds.7 mph79%29.80 "HgN/A
1:00 PM81 °FBroken clouds.9 mph89%29.83 "HgN/A
Weather by CustomWeather, © 2014

See weather overviewHow to use our weather pages